Wind_Speed
46 45 45 45 44 44 43 42 40 38 37 36 36 36 36 35 35 35 36 36 36 35 35 35 34 35 36 37 39 40 41 41 41 42 43 44 46 48 49 49 50 50
46 46 46 46 46 46 46 45 44 43 42 40 39 39 38 38 38 38 38 38 38 38 37 37 36 36 36 36 38 40 42 42 42 43 43 44 45 47 49 49 50 52
47 47 47 47 47 47 47 47 46 46 45 45 44 43 42 42 41 41 40 40 40 40 40 39 39 38 38 37 37 38 41 43 44 44 44 44 45 46 49 50 50 52
47 47 47 48 48 49 49 49 48 48 48 47 47 47 47 46 45 44 44 43 43 42 42 42 42 42 41 40 39 39 39 41 43 45 46 46 46 47 48 50 51 52
49 48 48 49 50 50 51 50 50 50 49 49 49 49 49 49 48 48 47 46 46 45 45 45 45 45 45 44 43 42 41 41 42 44 46 48 48 48 48 50 51 52
52 51 51 51 51 51 52 52 52 51 51 51 51 51 51 51 50 50 50 50 49 49 48 48 48 47 48 48 48 47 46 45 44 43 44 46 48 49 50 50 51 53
55 53 53 53 53 53 52 52 52 52 52 54 53 53 53 53 52 52 52 52 52 52 52 52 51 51 50 50 50 50 50 49 48 47 46 46 47 49 51 51 52 53
58 57 57 56 56 55 54 54 54 53 52 53 53 52 53 53 53 54 54 54 53 53 54 54 54 54 54 53 52 52 52 52 52 51 50 50 49 49 50 52 52 53
59 58 59 60 60 57 55 54 54 53 52 53 53 53 54 54 54 55 54 54 55 55 55 55 56 56 56 56 56 55 55 55 55 55 54 54 53 53 52 52 53 54
53 49 48 54 59 60 58 57 56 55 55 56 56 57 58 57 56 56 54 54 55 55 56 56 57 57 58 59 59 59 59 58 58 58 58 57 57 56 56 55 55 55
46 43 43 48 56 57 57 57 58 58 58 58 58 59 60 59 57 56 56 55 57 57 57 57 58 59 59 60 60 61 62 61 61 61 61 60 60 59 59 59 58 57
48 49 52 56 59 57 52 51 54 57 58 59 58 57 58 58 56 54 55 55 57 59 59 59 59 60 60 61 61 62 63 64 64 64 64 63 63 63 62 61 61 61
53 54 57 61 63 60 54 50 50 53 56 58 57 56 57 57 51 47 49 51 53 57 60 61 60 60 60 62 63 64 65 65 65 66 66 66 66 66 65 65 64 64
55 56 57 59 61 61 58 54 51 51 53 55 55 55 57 57 49 41 43 49 54 56 58 60 61 61 61 63 65 66 66 66 66 66 66 68 68 68 68 68 68 67
56 56 57 59 60 60 59 57 53 52 52 53 54 53 54 57 55 49 48 54 58 58 57 56 58 60 61 65 69 69 68 68 67 66 67 68 69 69 70 70 71 71
58 58 59 60 60 60 60 60 57 54 54 54 55 55 54 57 61 60 57 59 59 57 56 56 56 58 62 67 72 74 72 70 69 69 70 70 70 71 72 72 73 73
59 60 61 61 62 62 62 62 61 59 58 57 57 58 57 58 62 62 61 61 61 59 60 62 61 61 64 67 71 75 75 72 71 71 72 72 73 73 74 75 75 75
62 63 63 63 63 64 64 65 64 63 62 60 60 61 62 63 65 66 66 66 66 66 67 66 64 62 64 66 68 72 74 74 73 72 71 71 72 74 76 76 76 77
65 66 66 66 66 67 67 67 68 67 66 65 64 64 65 66 68 69 71 71 71 72 72 70 66 66 68 69 70 71 72 73 74 73 71 71 72 73 75 76 76 77
68 68 68 69 69 70 70 70 70 71 70 69 69 69 68 69 70 71 72 73 72 72 73 72 70 70 72 73 73 72 72 73 74 74 72 72 74 74 74 74 75 76
70 70 70 71 71 72 72 73 73 73 73 73 73 73 73 73 73 73 74 74 74 72 71 70 71 73 75 76 75 74 74 75 76 75 74 75 78 78 77 77 77 77
71 71 72 72 72 73 73 74 74 74 75 75 75 76 76 76 76 76 76 76 76 74 70 69 71 74 76 77 77 76 76 76 77 77 77 78 79 80 80 80 80 80
72 73 73 72 73 73 73 74 75 75 76 76 76 77 77 78 78 78 77 77 77 75 71 70 73 76 77 79 79 78 78 79 80 80 80 80 80 80 80 81 81 82
74 74 74 74 74 74 74 74 75 76 76 76 77 77 77 78 78 78 78 77 76 74 72 72 75 77 78 79 79 78 79 80 82 83 83 83 82 82 81 82 82 82
75 75 76 76 76 76 76 76 76 76 77 77 77 76 77 77 78 78 77 76 74 73 72 74 77 78 78 79 79 79 79 80 82 83 83 82 82 82 83 83 83 83
76 76 76 77 77 77 77 78 78 78 78 78 78 77 77 77 78 78 77 74 73 73 74 75 76 77 77 78 79 79 80 80 82 82 82 81 81 82 83 83 84 84
Wind_Direction
262 261 261 261 260 260 258 258 257 255 254 252 251 249 248 247 247 246 246 245 246 246 247 248 248 247 246 247 248 248 247 247 247 247 247 246 245 244 244 244 242 239
262 261 261 261 261 260 259 258 257 256 256 255 254 253 251 250 249 248 248 247 247 247 247 247 247 247 247 246 246 246 245 245 245 245 246 246 245 244 245 244 243 242
262 262 262 261 261 261 260 259 258 257 257 256 255 255 254 252 252 251 250 250 249 249 248 248 247 247 248 247 246 246 245 244 244 243 244 244 245 245 245 245 245 244
263 263 262 261 261 260 260 260 260 259 258 258 257 256 255 255 254 253 252 252 251 251 250 249 248 247 248 247 247 247 246 245 245 244 243 243 243 243 244 245 245 245
262 261 260 260 259 259 259 259 260 260 259 259 259 258 257 256 255 255 254 253 253 252 252 250 249 248 248 247 247 247 247 246 246 245 245 244 243 242 242 243 244 245
263 261 260 259 259 259 259 259 259 259 259 259 258 258 258 257 257 256 255 255 254 253 252 252 251 250 249 249 248 248 248 248 247 247 247 246 245 244 242 242 242 243
266 264 263 261 260 259 259 260 259 259 259 259 258 258 258 258 258 257 256 255 255 254 253 252 252 251 250 250 250 249 249 249 249 249 249 248 248 247 245 244 243 242
269 267 265 264 263 261 259 259 260 259 257 257 258 259 258 258 258 257 257 256 255 255 255 255 253 253 252 251 251 251 250 250 249 249 250 250 250 249 248 246 245 244
267 270 269 267 264 261 259 259 259 258 255 256 258 259 259 258 257 257 257 257 255 255 255 256 256 255 254 253 252 251 251 251 250 249 249 249 249 249 249 249 247 246
265 267 269 268 264 261 259 257 256 256 256 257 258 258 257 258 257 258 259 258 256 255 255 256 256 256 256 254 252 251 251 251 251 250 249 249 248 248 248 249 249 248
256 251 254 259 260 257 256 255 256 257 258 258 258 258 258 257 257 258 259 258 257 256 256 256 256 256 256 254 253 252 252 251 251 250 250 250 249 249 248 248 248 249
250 246 248 251 254 255 255 257 259 260 259 258 258 259 259 259 258 258 259 260 259 258 257 257 256 256 256 256 254 254 253 252 251 251 250 250 250 250 250 249 249 249
253 252 252 252 253 256 257 257 258 259 259 259 258 257 257 256 256 258 262 264 264 261 258 256 255 256 257 258 257 255 253 251 251 251 251 250 250 250 250 251 250 250
257 256 256 256 257 258 259 258 255 252 253 256 256 255 255 253 250 250 256 260 262 261 259 257 257 257 259 259 259 257 255 253 252 252 253 252 251 251 250 251 251 250
259 258 258 259 259 260 261 260 256 251 250 251 252 251 251 250 246 242 245 250 254 258 260 260 258 258 259 259 259 258 256 256 255 254 254 253 253 252 252 251 251 250
262 261 260 260 261 261 261 261 259 255 250 249 249 248 247 247 245 244 246 248 251 255 259 261 262 262 260 260 260 261 259 258 258 257 255 254 254 254 253 252 252 251
264 263 263 263 263 263 263 262 261 258 254 251 249 248 247 245 245 245 246 248 248 251 257 263 264 264 263 261 261 262 262 261 260 259 257 256 255 255 255 254 253 252
265 264 264 264 264 264 264 264 263 262 259 256 253 250 249 247 247 246 246 247 248 251 256 261 261 260 261 262 263 263 264 263 262 261 260 259 258 257 256 255 254 254
264 264 265 265 264 264 264 264 264 264 263 260 258 255 253 251 251 250 249 249 249 251 254 256 256 255 257 260 262 263 264 264 264 263 263 262 261 260 257 256 255 254
263 264 264 264 264 264 264 264 264 264 264 263 262 260 258 256 255 254 254 252 251 251 252 254 254 253 253 256 258 260 262 263 264 264 264 263 263 262 260 259 257 256
264 263 263 263 263 263 264 264 264 264 264 264 264 263 262 260 259 258 258 257 255 253 252 253 254 254 253 254 256 258 259 261 263 264 264 264 264 264 263 262 261 260
265 264 263 263 263 263 263 263 263 263 263 263 263 263 263 263 262 261 261 261 260 258 256 255 256 256 255 255 256 256 257 259 261 262 262 263 264 264 265 264 264 262
267 266 265 264 263 263 262 262 262 262 262 262 262 262 262 263 262 262 262 262 262 262 261 260 259 258 258 258 257 256 256 257 258 259 260 260 261 262 263 264 264 264
268 268 267 266 265 264 263 263 262 262 262 262 261 261 262 262 262 262 262 262 262 263 263 262 261 260 260 260 259 258 257 257 257 258 258 258 259 259 260 261 261 262
267 267 267 267 267 266 266 265 264 263 263 263 262 262 262 262 262 262 261 261 262 262 262 261 261 261 261 261 261 260 259 259 258 258 258 258 258 258 259 259 259 259
266 266 266 266 266 266 266 266 266 265 265 264 264 264 263 263 263 262 262 262 262 262 261 260 260 260 260 261 261 261 261 260 260 260 260 259 259 258 258 258 258 258
Height
10569 10570 10569 10570 10570 10571 10572 10573 10574 10575 10576 10578 10579 10580 10581 10582 10582 10583 10584 10585 10586 10586 10587 10588 10589 10589 10590 10590 10591 10592 10593 10594 10595 10596 10597 10598 10599 10600 10601 10603 10605 10607
10563 10564 10564 10564 10564 10565 10566 10567 10568 10569 10571 10572 10573 10574 10575 10576 10577 10578 10579 10580 10581 10582 10583 10583 10584 10585 10585 10586 10586 10587 10588 10589 10590 10591 10593 10594 10595 10596 10597 10598 10600 10601
10558 10558 10558 10559 10559 10558 10559 10560 10561 10563 10564 10565 10566 10567 10569 10570 10571 10572 10573 10575 10576 10577 10578 10579 10580 10580 10581 10581 10582 10582 10583 10584 10585 10586 10588 10589 10590 10591 10593 10594 10595 10596
10552 10553 10553 10553 10552 10552 10552 10554 10555 10556 10557 10558 10559 10560 10562 10563 10564 10566 10567 10569 10570 10572 10573 10574 10575 10576 10576 10577 10577 10578 10578 10579 10580 10581 10582 10584 10585 10586 10588 10589 10590 10592
10547 10547 10547 10546 10546 10545 10546 10548 10548 10549 10550 10551 10552 10553 10555 10556 10557 10559 10561 10562 10564 10566 10567 10568 10569 10570 10571 10572 10572 10573 10574 10575 10576 10576 10577 10578 10579 10580 10582 10583 10585 10586
10540 10540 10540 10540 10540 10539 10541 10542 10542 10543 10543 10544 10545 10546 10547 10549 10550 10552 10553 10555 10557 10558 10560 10561 10562 10564 10565 10566 10567 10568 10569 10570 10571 10572 10573 10573 10574 10575 10576 10577 10579 10580
10531 10533 10534 10534 10533 10534 10535 10536 10535 10536 10536 10537 10538 10539 10540 10541 10543 10544 10546 10547 10549 10550 10552 10553 10555 10557 10558 10560 10561 10563 10564 10565 10566 10567 10568 10569 10570 10570 10571 10572 10573 10574
10523 10525 10526 10527 10527 10528 10529 10529 10528 10529 10530 10530 10531 10531 10532 10533 10534 10535 10537 10539 10541 10542 10544 10546 10548 10550 10552 10554 10555 10556 10557 10558 10560 10561 10562 10563 10564 10564 10565 10566 10567 10568
10517 10518 10518 10517 10517 10519 10521 10521 10521 10523 10524 10523 10523 10523 10523 10524 10526 10527 10529 10531 10533 10534 10536 10538 10541 10543 10545 10546 10548 10549 10549 10550 10551 10552 10553 10555 10556 10557 10558 10560 10561 10562
10512 10513 10511 10506 10504 10507 10511 10513 10514 10516 10516 10516 10516 10515 10514 10515 10516 10518 10521 10523 10524 10526 10528 10530 10533 10534 10536 10538 10539 10540 10541 10542 10543 10544 10545 10547 10548 10549 10551 10552 10554 10555
10505 10504 10502 10496 10494 10496 10501 10505 10506 10508 10509 10509 10507 10506 10505 10507 10509 10511 10512 10514 10516 10518 10520 10521 10523 10526 10527 10528 10529 10530 10531 10533 10534 10536 10537 10539 10540 10542 10543 10544 10546 10547
10496 10495 10493 10489 10487 10489 10494 10498 10499 10499 10500 10500 10499 10499 10498 10500 10502 10503 10505 10506 10507 10509 10511 10512 10514 10517 10517 10519 10520 10520 10521 10523 10525 10527 10529 10531 10532 10534 10536 10537 10539 10540
10487 10487 10485 10483 10482 10484 10488 10492 10493 10493 10491 10491 10492 10493 10491 10492 10495 10497 10499 10499 10498 10498 10499 10502 10505 10507 10508 10509 10509 10509 10510 10514 10516 10518 10520 10522 10523 10525 10528 10529 10530 10532
10478 10478 10477 10476 10476 10477 10480 10484 10486 10486 10485 10484 10485 10486 10485 10485 10488 10490 10491 10490 10487 10486 10488 10492 10495 10498 10499 10498 10497 10497 10500 10503 10507 10510 10512 10513 10514 10516 10518 10519 10520 10522
10468 10469 10469 10468 10469 10470 10471 10474 10477 10479 10479 10478 10479 10480 10479 10479 10480 10480 10480 10479 10479 10479 10482 10485 10487 10488 10488 10486 10483 10485 10490 10493 10497 10502 10503 10504 10505 10507 10509 10509 10510 10513
10459 10460 10460 10460 10461 10462 10463 10464 10467 10470 10471 10471 10472 10473 10473 10474 10473 10472 10472 10472 10473 10476 10476 10478 10480 10480 10478 10476 10472 10473 10480 10485 10489 10491 10493 10495 10496 10497 10498 10499 10500 10503
10450 10450 10450 10451 10452 10453 10453 10455 10457 10459 10461 10463 10465 10466 10467 10467 10466 10467 10467 10466 10468 10471 10471 10472 10474 10473 10470 10469 10467 10465 10469 10475 10479 10480 10481 10484 10486 10487 10487 10488 10490 10493
10441 10441 10441 10442 10443 10443 10443 10444 10446 10448 10450 10453 10455 10457 10458 10458 10458 10460 10461 10461 10462 10465 10465 10466 10468 10467 10462 10462 10461 10459 10460 10464 10467 10469 10472 10474 10475 10476 10476 10478 10480 10482
10431 10431 10432 10433 10433 10433 10434 10435 10435 10437 10439 10442 10444 10446 10448 10449 10449 10450 10451 10453 10456 10457 10458 10459 10461 10460 10456 10454 10454 10453 10452 10454 10456 10459 10462 10463 10463 10463 10464 10467 10470 10471
10421 10422 10423 10423 10423 10423 10424 10424 10426 10427 10428 10430 10432 10434 10436 10437 10438 10439 10440 10443 10447 10448 10449 10452 10453 10451 10449 10447 10446 10446 10446 10445 10445 10449 10453 10453 10450 10451 10453 10455 10458 10461
10411 10412 10413 10413 10413 10414 10414 10414 10416 10417 10418 10419 10420 10421 10423 10425 10427 10428 10429 10430 10434 10438 10443 10447 10444 10440 10438 10437 10437 10438 10438 10436 10436 10439 10442 10441 10438 10439 10442 10444 10446 10449
10399 10400 10401 10402 10403 10403 10404 10404 10405 10406 10407 10408 10409 10409 10410 10412 10414 10416 10417 10419 10421 10426 10435 10439 10434 10429 10427 10426 10426 10429 10429 10428 10427 10429 10430 10430 10428 10429 10431 10432 10434 10436
10386 10386 10388 10390 10391 10392 10393 10393 10394 10395 10395 10397 10398 10399 10399 10401 10402 10404 10406 10408 10409 10414 10424 10428 10422 10418 10416 10414 10415 10418 10419 10418 10417 10417 10418 10419 10419 10420 10421 10422 10423 10424
10373 10373 10374 10376 10377 10378 10380 10381 10382 10382 10383 10384 10386 10388 10389 10389 10391 10393 10395 10397 10400 10406 10413 10413 10407 10404 10403 10403 10404 10407 10407 10406 10405 10404 10405 10407 10409 10411 10412 10411 10412 10412
10362 10362 10362 10363 10364 10365 10366 10367 10368 10369 10370 10371 10373 10376 10377 10378 10379 10381 10383 10388 10393 10397 10399 10397 10393 10392 10392 10393 10393 10394 10394 10394 10392 10391 10393 10396 10399 10400 10400 10399 10400 10401
10351 10352 10352 10352 10352 10352 10353 10354 10354 10355 10356 10358 10360 10363 10365 10366 10366 10368 10372 10378 10383 10384 10383 10382 10382 10381 10382 10382 10381 10380 10380 10380 10379 10380 10382 10385 10387 10387 10387 10387 10387 10389